星链-6154 (STARLINK-6154 )

导读

STARLINK-6154是美国SpaceX公司“星链”低轨互联网通信星座的一员,于2023年6月23日发射升空。作为星链组网卫星,它属于量产型卫星,采用平板设计与霍尔推进器,具备自主避撞能力,可通过Ku/Ka波段提供全球宽带互联网服务,填补地面网络覆盖盲区,助力实现全球覆盖接入。

Basic Information
目录编号:
57123
目录名称:
STARLINK-6154
国际标识:
2023-090Y
轨道中心:
EARTH
卫星名称:
星链-6154
卫星全名:
星链-6154 (STARLINK-6154 )
卫星状态:
在轨 (已飞行1177 天)
发射日期:
2023-06-23 UTC
国别 :
美国 (US)
星等 :
--
This satellite is enrolled in the Space Conjunction Data Service (SCDS) and the current flight risk assessment level is: No High Risk
Orbit Information
数据来源 国际轨道数据
星历时间: 2026-09-11T20:39:03+0800
1天前
查看轨道信息
半长轴: 6861.269km
偏心率: 0.0001252
轨道倾角: 43.003°
近地点辐角 264.832°
升交点赤经 312.055°
平近点角 95.239°
近地点: 482.272km
远地点: 483.992km
周期: 94.268分钟
每日圈数: 15.275525
Detailed Information
固有亮度:
5
最大亮度:
2.4
卫星平台:
Starlink v1.5
覆盖范围:
全球
运营商:
太空探索技术公司
运营商所在国:
美国
制造商(研发单位):
太空探索技术公司
制造商所在国:
美国
使用方式:
暂无
Satellite Introduction
星链(Starlink)计划是由太空探索技术公司(SpaceX)提出的一个巨型低轨卫星互联网星座项目,计划在2019年至2024年间在太空搭建由约1.2万颗卫星组成的“星链”网络,其中1584颗将部署在地球上空550千米处的近地轨道,并从2020年开始工作。该卫星仍在工作。
2D Orbit Map
3D Orbit Map
Orbit Altitude Analysis Chart
Orbit Inclination Analysis Chart
Orbit Comprehensive Analysis Chart
View Comprehensive Chart
Conjunction Data List
Event ID Objects TCA Miss Dist (km) Collision Risk Probability Collision Risk Index (CRI) Action
CDM_260912-231805-712306-729223
2026-09-12T
23:18:30+0000
0.681 km
远距离
5.893534E-5 中风险 0.7
CDM_260914-143405-619305-712322
HAWK-7B (56193)
2026-09-14T
14:34:21+0000
1.833 km
极远距离
3.500636E-6 低风险 0.46
CDM_260914-050805-620005-712322
HAWK-7C (56200)
2026-09-14T
05:08:47+0000
1.890 km
极远距离
3.220062E-6 低风险 0.45
Miss Distance Evolution Trend with All Objects
Collision Probability Evolution Trend with All Objects